Location: Lombard
(41.8800°N, 88.0080°W)
Time: 12:09:46
(UTC-05:00)

A-11 Canister half - Pass Details

Date: 31 January 2023
Orbit: 1512 x 1687 km, 47.2° (Epoch: 20 March)

Event Time Altitude Azimuth Distance (km) Brightness Sun altitude
Rises 09:19:19 0° 188° (S) 4,865 12.2 19.5°
Reaches altitude 10° 09:23:22 10° 175° (S) 3,854 12.1 20.0°
Maximum altitude 09:30:26 23° 128° (SE) 2,917 12.8 20.8°
Drops below altitude 10° 09:37:19 10° 81° (E) 3,764 11.5 21.6°
Sets 09:41:09 0° 68° (ENE) 4,725 11.8 22.1°
